Regional Weather Roundup
Issued by NWS

Home | Current Version | Previous Version | Text Only | Print | Product List | Glossary Off
Versions: 1 2 3 4 5 6 7 8 9 10 11 12 13 14 15 16 17 18 19 20 21 22 23 24 25 26 27 28 29 30 31 32 33 34 35 36 37 38 39 40 41 42 43 44 45 46 47 48 49 50

348
ASUS44 KJAN 301910
RWRMS

MISSISSIPPI HOURLY WEATHER ROUNDUP
NATIONAL WEATHER SERVICE JACKSON MS
200 PM CDT WED JUL 30 2014

NOTE: "FAIR: INDICATES FEW OR NO CLOUDS BELOW 12,000 FEET WITH NO
SIGNIFICANT WEATHER AND/OR OBSTRUCTIONS TO VISIBILITY.

MSZ001>002-007>008-010>013-018>021-025>028-034>036-302000-
NORTHWEST MISSISSIPPI

CITY           SKY/WX    TMP DP  RH WIND       PRES   REMARKS
CLARKSDALE     FAIR      81  59  47 NW3       30.11F
CLEVELAND      FAIR      81  60  49 CALM      30.09F
GREENWOOD      SUNNY     82  57  42 E5        30.09F
GREENVILLE     SUNNY     81  60  48 NE3       30.09F
GRENADA        FAIR      81  55  41 E5        30.09F
OLIVE BRANCH   MOSUNNY   81  59  47 S6        30.11S
OXFORD         FAIR      79  55  44 N3        30.12F
TUNICA         CLEAR     81  52  36 SW3       30.11S
$$

MSZ003>006-009-014>017-022>024-029>033-037>039-302000-
NORTHEAST MISSISSIPPI

CITY           SKY/WX    TMP DP  RH WIND       PRES   REMARKS
BELMONT        FAIR      78  58  50 NW5       30.10F
COLUMBUS AFB   MOSUNNY   81  56  42 NE9       30.08F
CORINTH        FAIR      81  54  39 CALM      30.10S
GOLDN TRIANGLE MOSUNNY   82  57  42 NW7       30.09F
STARKVILLE     FAIR      81  54  39 NW3       30.09S
TUPELO         MOSUNNY   82  55  39 MISG      30.09F
$$

MSZ040-058-302000-
CENTRAL MISSISSIPPI

CITY           SKY/WX    TMP DP  RH WIND       PRES   REMARKS
JACKSON INTL   MOSUNNY   83  55  38 VRB5      30.08F
JACKSON HAWKNS SUNNY     82  53  36 CALM      30.08F
MERIDIAN KEY   SUNNY     84  54  35 NW8G16    30.06F
MERIDIAN NAS   MOSUNNY   83  53  35 N12       30.07F
RAYMOND        FAIR      82  77  83 NE5       30.07F HX  91
VICKSBURG      SUNNY     84  59  42 MISG      30.08F
$$

MSZ059>079-302000-
SOUTH MISSISSIPPI

CITY           SKY/WX    TMP DP  RH WIND       PRES   REMARKS
BROOKHAVEN     FAIR      81  59  47 CALM      30.09F
COLUMBIA       FAIR      82  55  39 W5G13     30.05F
HATTIESBURG    SUNNY     83  53  35 CALM      30.06F
MCCOMB         SUNNY     83  56  39 N6        30.07F
NATCHEZ        SUNNY     81  61  50 CALM      30.08F
PINE BELT      SUNNY     82  55  39 NE5       30.08S
$$

MSZ080>082-302000-
COASTAL MISSISSIPPI

CITY           SKY/WX    TMP DP  RH WIND       PRES   REMARKS
BAY ST LOUIS   SUNNY    N/A N/A N/A N8        30.02F
BILOXI         SUNNY     86  58  38 N6        30.02F
PASCAGOULA     SUNNY     85  56  37 MISG      30.03F
GULFPORT       SUNNY     89  57  33 N12       30.02F
$$



USA.gov is the U.S. government's official web portal to all federal, state and local government web resources and services.